Weather Roundup
Issued by NWS

Home | Current Version | Previous Version | Text Only | Print | Product List | Glossary On
Versions: 1 2 3 4 5 6 7 8 9 10 11 12 13 14 15 16 17 18 19 20 21 22 23 24 25 26 27 28 29 30 31 32 33 34 35 36 37 38 39 40 41 42 43 44 45 46 47 48 49 50
000
NZUS93 KARX 241910
HRRWXR

CURRENT HOURLY OBSERVATIONS ACROSS
MUCH OF THE UPPER MISSISSIPPI VALLEY
NATIONAL WEATHER SERVICE LA CROSSE WI
200 PM CDT THU JUL 24 2014


...SOUTHEAST MINNESOTA...


CITY           SKY/WX    TMP DP  RH WIND       PRES   REMARKS
ROCHESTER      MOSUNNY   77  58  51 S8        30.08F
ROCHESTER/MAYO FAIR      77  49  36 SE8       30.06F
WINONA         MOSUNNY   79  54  41 CALM      30.07F
AUSTIN         PTSUNNY   77  57  50 S9        30.07F
ALBERT LEA     MOSUNNY   79  55  44 S8        30.07F
DODGE CENTER   MOSUNNY   77  59  53 S12       30.07F
PRESTON        MOSUNNY   76  57  50 SE3       30.09F
OWATONNA       MOSUNNY   79  55  44 S8        30.07F
FARIBAULT      MOSUNNY   82  46  28 S6        30.05F
$$

...ELSEWHERE IN MINNESOTA...


CITY           SKY/WX    TMP DP  RH WIND       PRES   REMARKS
MINNEAPOLIS    PTSUNNY   81  54  39 SE9G16    30.03F
INTNL FALLS    MOSUNNY   75  53  46 VRB3      30.02F
DULUTH         PTSUNNY   75  56  51 S12       30.05F
RED WING       MOSUNNY   82  52  34 SE7       30.03F
REDWOOD FALLS  PTSUNNY   80  59  48 S14G25    30.00F
MANKATO        PTSUNNY   79  57  47 S10       30.03F
WORTHINGTON    CLOUDY    68  61  77 S15G23    30.00R
FAIRMONT       CLOUDY    77  57  50 S18       30.02F
$$

...SOUTHWEST WISCONSIN...


CITY           SKY/WX    TMP DP  RH WIND       PRES   REMARKS
LA CROSSE      SUNNY     81  53  37 SW9       30.08F
PRAIRIE DU CHI PTSUNNY   77  50  38 SE3       30.09F
BOSCOBEL       PTSUNNY   79  53  40 VRB3      30.11F
LONE ROCK      MOSUNNY   82  54  37 W6        30.12F
PLATTEVILLE    MOSUNNY   76  55  47 S6        30.14F
FORT MC COY    SUNNY     78  49  35 S6        30.11F
CAMP DOUGLAS   PTSUNNY   75  54  46 S6        30.11F
VIROQUA        MOCLDY    76  54  46 S5        30.12F
WIS DELLS      PTSUNNY   77  50  38 SW6       30.12F
$$

...ELSEWHERE IN WISCONSIN...


CITY           SKY/WX    TMP DP  RH WIND       PRES   REMARKS
MILWAUKEE      MOSUNNY   69  48  47 E8        30.16F
MADISON        PTSUNNY   75  51  43 CALM      30.13F
GREEN BAY      MOSUNNY   75  50  41 VRB5      30.12F
EAU CLAIRE     FAIR      79  50  36 S8        30.07F
BLACK RVR FLS  MOCLDY    78  47  33 SW5       30.09F
MEDFORD        PTSUNNY   73  51  45 SE3       30.11F
WAUSAU         MOSUNNY   75  49  39 CALM      30.09F
WIS RAPIDS     MOSUNNY   78  49  35 W10       30.11F
MARSHFIELD     SUNNY     75  51  43 W3        30.11F
RICE LAKE      MOSUNNY   77  50  39 S9        30.10F
$$

...NORTHEAST IOWA...


CITY           SKY/WX    TMP DP  RH WIND       PRES   REMARKS
WATERLOO       MOSUNNY   79  55  43 S8        30.08F
DUBUQUE        PTSUNNY   74  58  57 S9        30.13F
DECORAH        MOSUNNY   75  57  53 VRB7      30.09F
MASON CITY     PTSUNNY   77  61  57 S10G22    30.09F
CHARLES CITY   MOSUNNY   79  55  44 S9        30.09F
OELWEIN        MOSUNNY   77  59  53 S9        30.11F
$$

...ELSEWHERE IN IOWA...


CITY           SKY/WX    TMP DP  RH WIND       PRES   REMARKS
DES MOINES     CLOUDY    80  58  46 SE13      30.08F
IOWA CITY      SUNNY     77  61  57 SE8       30.13F
FORT DODGE     CLOUDY    75  57  53 S9        30.10F
MARSHALLTOWN   PTSUNNY   77  59  53 S10       30.09F
CEDAR RAPIDS   SUNNY     76  59  55 S7        30.11F
$$

...NORTHERN ILLINOIS...


CITY           SKY/WX    TMP DP  RH WIND       PRES   REMARKS
CHICAGO-OHARE  MOSUNNY   74  46  36 E12       30.14F
DUPAGE         SUNNY     76  49  38 NE8G17    30.13F
CHICAGO-MIDWAY MOSUNNY   74  45  35 VRB5      30.14F
MOLINE         MOSUNNY   78  53  41 VRB5      30.13F
ROCKFORD       MOSUNNY   75  50  41 E9        30.15F
STERLING       PTSUNNY   79  54  41 E6        30.15F
PEORIA         SUNNY     80  53  39 NE12G17   30.15S
$$

NOTE: "FAIR" INDICATES FEW OR NO CLOUDS BELOW 12,000 FEET WITH NO
SIGNIFICANT WEATHER AND/OR OBSTRUCTIONS TO VISIBILITY. WIND
SPEEDS ARE IN MILES-PER-HOUR.



USA.gov is the U.S. government's official web portal to all federal, state and local government web resources and services.